Simultaneous Nadir Overpasses (SNOs) Predictions

Prediction of SNOs between NOAA-20 and PACE Satellite Orbit:

Table of predicted SNOs for the next 14.0 days since TLE Epoch: 8/10/2024
Index Date (NOAA-20) Time (NOAA-20) Lat,Lon (NOAA-20) SZA (NOAA-20 ) Date (PACE) Time (PACE) Lat,Lon (PACE) SZA (PACE ) Distance(km) Time Diff (sec)
1 08/10/2024 10:04:50 79.88, -8.72 66.84 08/10/2024 10:04:55 79.88, -8.85 66.86 2.60 5
2 08/12/2024 13:40:34 -80.00, 116.12 112.30 08/12/2024 13:41:36 -80.01, 116.03 112.32 1.89 62
3 08/12/2024 14:31:15 79.88, -75.37 67.49 08/12/2024 14:30:42 79.87, -75.22 67.48 3.06 33
4 08/14/2024 18:06:56 -79.92, 50.32 111.80 08/14/2024 18:07:20 -79.93, 50.22 111.79 2.00 24
5 08/14/2024 18:57:37 79.80,-141.21 68.00 08/14/2024 18:56:26 79.79,-141.07 68.01 3.00 71
6 08/16/2024 22:33:18 -79.85, -15.56 111.26 08/16/2024 22:33:03 -79.85, -15.62 111.25 1.35 15
7 08/19/2024 02:09:02 79.99, 109.12 69.69 08/19/2024 02:09:42 79.99, 109.14 69.67 0.32 40
8 08/19/2024 02:59:40 -79.78, -81.51 110.70 08/19/2024 02:58:45 -79.77, -81.51 110.68 0.12 55
9 08/21/2024 06:35:24 79.93, 43.10 70.28 08/21/2024 06:35:23 79.92, 43.23 70.26 2.53 1
10 08/23/2024 10:11:06 -80.01, 168.34 108.86 08/23/2024 10:11:58 -80.01, 168.38 108.89 0.74 52



Historial Predications of SNOs between NOAA-20 and PACE
